This demonstration page uses our WeatherBlox Daily Observations layout. Learn more.

Left ArrowRight Arrow

Hourly Observations for May 16, 2018

Temp ( °F °C ) Dew Point ( °F °C ) Humidity (%) Winds ( mph kmh ) Pressure ( in mb ) Visibility ( mi km ) Precip ( " mm )
12:53 am 00:53 Cloudy 63 17.2 59 15 87 87 N 3 6 29.93 1014 10 16 0.00 0.00
1:53 am 01:53 Cloudy 64 17.8 59 15 84 84 Calm 29.93 1014 10 16 0.00 0.00
2:53 am 02:53 Cloudy 62 16.7 60 15.6 93 93 W 5 7 29.93 1014 10 16 0.00 0.00
3:53 am 03:53 Mostly Clear 62 16.7 60 15.6 93 93 W 3 6 29.94 1014 10 16 0.00 0.00
4:53 am 04:53 Cloudy 61 16.1 52 11.1 72 72 S 7 11 29.94 1014 10 16 0.00 0.00
5:53 am 05:53 Mostly Cloudy 59 15 49 9.4 69 69 S 9 15 29.96 1015 10 16 0.00 0.00
6:53 am 06:53 Cloudy 58 14.4 48 8.9 70 70 S 9 15 29.97 1015 10 16 0.00 0.00
7:53 am 07:53 Cloudy 59 15 48 8.9 67 67 SSE 9 15 29.98 1015 10 16 0.00 0.00
8:53 am 08:53 Cloudy 61 16.1 49 9.4 65 65 SSW 6 9 29.99 1016 10 16 0.00 0.00
9:53 am 09:53 Partly Cloudy 64 17.8 50 10 60 60 VRB 3 6 29.98 1015 10 16 0.00 0.00
10:53 am 10:53 Cloudy 67 19.4 47 8.3 49 49 S 12 19 29.99 1016 10 16 0.00 0.00
11:53 am 11:53 Mostly Cloudy 69 20.6 48 8.9 47 47 S 8 13 29.99 1016 10 16 0.00 0.00
12:53 pm 12:53 Cloudy 69 20.6 50 10 51 51 S 12 19 29.99 1016 10 16 0.00 0.00
1:53 pm 13:53 Cloudy 70 21.1 50 10 49 49 S 15 24 29.99 1016 10 16 0.00 0.00
2:53 pm 14:53 Cloudy 70 21.1 49 9.4 47 47 S 18 30 30.00 1016 10 16 0.00 0.00
3:53 pm 15:53 Cloudy 67 19.4 50 10 55 55 SSE 21 33 30.00 1016 10 16 0.00 0.00
4:53 pm 16:53 Cloudy 66 18.9 48 8.9 52 52 S 15 24 30.00 1016 10 16 0.00 0.00
5:53 pm 17:53 Cloudy 66 18.9 49 9.4 54 54 SSE 12 19 30.00 1016 10 16 0.00 0.00
6:53 pm 18:53 Cloudy 66 18.9 49 9.4 54 54 SSE 8 13 30.00 1016 10 16 0.00 0.00
7:53 pm 19:53 Cloudy 65 18.3 49 9.4 56 56 SE 5 7 30.01 1016 10 16 0.00 0.00
8:53 pm 20:53 Cloudy 65 18.3 50 10 59 59 SE 3 6 30.01 1016 10 16 0.00 0.00
9:53 pm 21:53 Cloudy 65 18.3 51 10.6 61 61 Calm 30.01 1016 10 16 0.00 0.00
10:53 pm 22:53 Cloudy 64 17.8 54 12.2 70 70 NNW 5 7 30.02 1017 10 16 0.00 0.00
11:53 pm 23:53 Cloudy 63 17.2 54 12.2 73 73 WNW 3 6 30.01 1016 10 16 0.00 0.00

Powered by AerisWeather